SCP
0 0 0 0 0 0 0 0 0 0 0 0 0 0 0 0 0 0 0 0 0 0 0 0 0 1 1 1 2 2 2 2 1 1 2 2 2 1
0 0 0 0 0 0 0 0 0 0 0 0 0 0 0 0 0 0 0 0 0 0 0 0 0 0 1 1 1 1 2 1 1 1 1 1 1 1
0 0 0 0 0 0 0 0 0 0 0 0 0 0 0 0 0 0 0 0 0 0 0 0 0 0 0 0 1 1 1 1 1 1 1 1 1 0
0 0 0 0 0 0 0 0 0 0 0 0 0 0 0 0 0 0 0 0 0 0 0 0 0 0 0 0 0 0 1 1 1 1 1 0 0 0
0 0 0 0 0 0 0 0 0 0 0 0 0 0 0 0 0 0 0 0 0 0 0 0 0 0 0 0 0 0 0 0 0 0 0 0 0 0
0 0 0 0 0 0 0 0 0 0 0 0 0 0 0 0 0 0 0 0 0 0 0 0 0 0 0 0 0 0 0 0 0 0 0 0 0 0
0 0 0 0 0 0 0 0 0 0 0 0 0 0 0 0 0 0 0 0 0 0 0 0 0 0 0 0 0 0 0 0 0 0 0 0 0 0
0 0 0 0 0 0 0 0 0 0 0 0 0 0 0 0 0 0 0 0 0 0 0 0 0 0 0 0 0 0 0 0 0 0 0 0 0 0
0 0 0 0 0 0 0 0 0 0 0 0 0 0 0 0 0 0 0 0 0 0 0 0 0 0 0 0 0 0 0 0 0 0 0 0 0 0
0 0 0 0 0 0 0 0 0 0 0 0 0 0 0 0 0 0 0 0 0 0 0 0 0 0 0 0 0 0 0 0 0 0 0 0 0 0
0 0 0 0 0 0 0 0 0 0 0 0 0 0 0 0 0 0 0 0 0 0 0 0 0 0 0 0 0 0 0 0 0 0 0 0 0 0
0 0 0 0 0 0 0 0 0 0 0 0 0 0 0 0 0 0 0 0 0 0 0 0 0 0 0 0 0 0 0 0 0 0 0 0 0 0
0 0 0 0 0 0 0 0 0 0 0 0 0 0 0 0 0 0 0 0 0 0 0 0 0 0 0 0 0 0 0 0 0 0 0 0 0 0
0 0 0 0 0 0 0 0 0 0 0 0 0 0 0 0 0 0 0 0 0 0 0 0 0 0 0 0 0 0 0 0 0 0 0 0 0 0
0 0 0 0 0 0 0 0 0 0 0 0 0 0 0 0 0 0 0 0 0 0 0 0 0 0 0 0 0 0 0 0 0 0 0 0 0 0
0 0 0 0 0 0 0 0 0 0 0 0 0 0 0 0 0 0 0 0 0 0 0 0 0 0 0 0 0 0 0 0 0 0 0 0 0 0
0 0 0 0 0 0 0 0 0 0 0 0 0 0 0 0 0 0 0 0 0 0 0 0 0 0 0 0 0 0 0 0 0 0 0 0 0 0
0 0 0 0 0 0 0 0 0 0 0 0 0 0 0 0 0 0 0 0 0 0 0 0 0 0 0 0 0 0 0 0 0 0 0 0 0 0
0 0 0 0 0 0 0 0 0 0 0 0 0 0 0 0 0 0 0 0 0 0 0 0 0 0 0 0 0 0 0 0 0 0 0 0 0 0
0 0 0 0 0 0 0 0 0 0 0 0 0 0 0 0 0 0 0 0 0 0 0 0 0 0 0 0 0 0 0 0 0 0 0 0 0 0
0 0 0 0 0 0 0 0 0 0 0 0 0 0 0 0 0 0 0 0 0 0 0 0 0 0 0 0 0 0 0 0 0 0 0 0 0 0
0 0 0 0 0 0 0 0 0 0 0 0 0 0 0 0 0 0 0 0 0 0 0 0 0 0 0 0 0 0 0 0 0 0 0 0 0 0
0 0 0 0 0 0 0 0 0 0 0 0 0 0 0 0 0 0 0 0 0 0 0 0 0 0 0 0 0 0 0 0 0 0 0 0 0 0
Wind_Speed
10 11 10 9 10 11 11 11 11 11 11 8 6 5 3 4 6 5 5 10 13 13 12 12 13 14 16 18 20 22 22 20 20 20 20 20 20 19
8 11 12 10 10 10 10 11 11 12 11 6 5 4 4 2 6 5 6 10 13 14 14 14 14 14 15 16 19 22 22 22 23 23 23 21 21 20
11 12 13 14 11 10 9 9 9 10 12 9 7 6 5 3 2 3 4 5 6 14 16 15 15 15 15 16 18 21 23 24 25 24 24 24 24 22
11 13 14 12 13 11 9 8 7 7 8 9 6 5 6 4 3 3 3 3 4 10 14 15 15 16 16 16 17 20 23 24 25 24 24 25 25 23
10 12 13 14 13 11 11 8 6 6 5 6 6 4 4 3 3 3 3 2 3 5 10 12 14 15 16 17 19 21 23 23 23 23 24 24 23 23
9 10 12 13 13 13 10 10 8 6 5 5 5 4 4 3 3 3 3 2 3 3 5 7 11 14 17 20 21 22 23 24 25 24 23 21 20 20
8 10 11 16 19 16 12 12 10 6 4 3 3 3 3 3 3 3 4 4 3 3 6 6 7 8 11 19 23 26 27 27 27 26 25 22 20 19
8 10 11 13 18 21 24 23 22 14 10 6 4 3 2 2 2 3 5 6 4 4 6 7 7 9 8 10 22 28 29 28 27 25 24 23 21 20
8 9 11 14 16 13 18 21 21 25 23 12 9 8 6 5 4 4 6 7 5 6 9 9 7 9 8 14 24 25 26 26 25 24 23 22 21 19
9 9 11 12 16 16 14 14 14 16 19 13 12 11 11 9 5 4 3 6 6 3 6 10 8 8 9 10 19 23 24 24 24 24 23 22 20 19
11 13 12 12 24 24 16 14 14 14 19 24 24 22 25 26 17 4 3 10 10 4 3 7 7 8 8 7 13 21 22 22 23 23 23 22 21 18
10 12 20 22 26 25 15 14 15 14 14 16 18 20 18 21 25 14 6 3 9 6 2 5 7 7 8 6 7 9 14 20 22 22 22 21 19 11
9 9 11 25 26 26 21 15 19 15 12 13 12 13 14 14 15 15 13 7 5 6 2 5 6 5 7 6 6 7 9 9 10 13 14 15 14 11
8 7 11 23 24 26 20 23 25 18 10 11 11 13 13 13 12 13 15 14 12 10 7 5 6 6 8 8 6 6 7 7 7 7 6 12 13 14
9 17 19 22 20 16 24 26 19 12 11 12 12 12 11 12 12 11 12 13 16 17 14 11 9 7 6 8 8 6 6 5 5 6 5 5 4 4
9 14 19 20 17 17 17 15 12 12 11 11 10 10 10 11 12 12 11 10 11 14 17 17 13 11 10 10 10 9 7 6 5 5 5 5 4 3
8 6 7 9 10 10 10 10 10 10 11 10 10 10 11 11 12 11 11 10 11 12 11 11 14 16 16 12 10 10 9 8 6 5 4 4 3 3
11 6 8 9 9 9 9 9 9 9 9 9 9 9 9 9 9 9 10 10 11 11 10 8 6 7 10 14 15 10 9 7 5 4 3 3 3 3
6 4 4 5 5 6 6 6 6 7 6 6 7 7 7 8 8 8 8 8 9 10 10 9 8 6 9 9 8 11 6 5 4 4 3 3 2 1
3 3 3 4 4 4 4 4 4 4 4 5 5 5 6 7 7 7 7 8 8 8 9 10 10 9 7 6 5 4 9 6 4 4 3 2 2 3
3 3 3 3 3 3 3 3 4 4 4 4 4 5 5 5 5 6 6 11 9 7 8 7 6 9 4 5 6 4 4 7 5 3 2 2 2 2
3 3 3 3 3 3 3 3 3 3 4 3 3 3 4 3 4 5 5 5 5 5 5 3 4 6 5 6 5 3 2 3 3 1 2 2 1 1
3 3 3 4 3 2 2 3 3 3 2 2 2 2 3 3 3 3 3 4 4 4 4 4 4 4 4 4 3 2 2 1 1 2 2 3 5 8
Wind_Direction
313 312 306 296 282 269 256 243 247 259 269 275 278 274 249 204 194 184 189 199 202 209 212 210 211 210 206 199 192 188 185 179 173 171 172 170 161 150
319 319 315 306 299 279 260 247 238 244 256 266 273 296 300 258 203 189 200 203 206 210 215 214 211 210 208 202 193 187 182 175 171 172 172 162 148 141
325 323 319 316 309 305 283 256 241 237 246 258 267 282 294 280 246 211 206 202 205 209 213 216 214 209 206 202 194 185 177 171 168 169 163 152 146 143
325 324 323 321 318 311 306 294 273 254 246 251 256 262 263 260 237 224 215 201 195 203 207 212 213 210 202 195 187 177 169 165 161 158 152 147 144 143
319 324 324 324 325 320 315 310 296 282 263 253 251 249 252 250 242 233 210 190 179 185 192 195 198 196 187 177 170 163 158 153 148 144 141 140 139 139
318 328 328 330 334 333 333 333 322 306 284 263 250 243 241 243 214 204 197 172 162 153 143 140 149 155 158 153 147 141 135 131 129 128 126 125 125 127
334 340 340 350 357 358 0 360 355 347 330 298 267 240 226 221 214 188 183 155 136 141 129 123 122 122 127 127 125 125 122 122 121 120 119 115 113 113
355 353 353 357 10 8 12 16 17 16 12 1 344 321 294 265 250 203 172 165 161 156 130 115 113 110 110 113 120 118 118 118 118 118 117 114 111 111
13 11 11 7 21 12 11 16 16 20 26 21 13 7 353 339 316 249 197 170 146 151 135 118 111 109 107 118 118 117 118 118 118 117 116 115 114 114
21 20 21 11 24 25 13 16 15 15 17 20 18 12 6 357 320 277 212 134 108 109 131 120 113 106 108 115 122 123 124 126 126 127 126 125 124 123
23 24 27 23 28 30 19 17 18 13 13 19 22 22 20 20 17 1 176 159 142 108 63 104 114 99 80 82 117 123 126 128 130 131 131 129 128 123
25 16 24 31 29 33 25 18 23 14 9 9 15 16 18 19 23 22 357 167 139 118 47 109 121 111 92 47 60 100 112 117 119 124 127 128 127 118
26 15 18 28 29 32 32 26 27 23 13 14 14 15 16 18 19 19 18 21 92 98 78 107 112 90 105 105 57 59 88 99 102 109 111 113 122 130
17 12 21 29 29 30 32 30 28 25 19 21 21 19 16 13 12 19 26 33 41 59 56 77 104 119 123 112 105 85 80 85 96 97 92 96 93 99
15 23 27 30 28 26 28 30 26 23 21 24 24 20 14 11 11 16 21 34 42 43 45 56 86 101 103 118 120 123 103 87 91 101 98 94 89 88
18 19 24 26 29 26 27 26 22 24 26 22 20 18 15 17 21 20 23 26 44 46 41 47 59 83 99 102 111 115 113 120 113 100 98 93 89 86
26 14 17 17 20 20 22 24 23 21 24 21 19 21 24 26 27 26 29 35 46 50 47 51 60 68 69 79 98 101 104 102 98 96 107 115 117 123
30 19 21 20 18 16 16 17 20 22 21 23 21 20 23 27 30 30 36 41 46 42 37 32 57 79 77 56 46 91 96 99 94 79 77 97 93 71
23 8 9 10 10 9 7 6 11 15 13 18 20 16 20 27 35 38 38 45 50 47 38 30 30 61 90 92 48 38 77 92 96 85 68 70 82 48
1 359 358 357 0 1 1 359 357 6 7 12 16 15 20 26 32 37 41 47 51 53 49 41 41 45 66 90 103 62 52 63 69 75 64 47 357 315
342 344 344 348 350 352 353 354 353 356 4 8 17 17 18 26 30 30 38 52 57 55 57 47 32 40 46 69 84 73 43 60 74 84 75 49 15 355
325 327 327 330 335 341 342 346 347 350 3 15 12 16 18 26 32 35 36 42 46 49 56 51 31 39 51 73 80 74 53 22 9 333 208 194 140 64
300 300 303 309 314 323 337 340 340 337 348 359 4 13 19 23 25 32 32 39 45 42 41 40 39 46 54 65 75 67 41 16 22 26 347 284 257 263